Year,Month,Day,Hour,Minute,Value (Times are PST for temperature in C)
2021,06,30,08,52,20.90
2021,06,30,08,53,21.00
2021,06,30,08,54,21.00
2021,06,30,08,55,21.00
2021,06,30,08,56,21.00
2021,06,30,08,57,20.90
2021,06,30,08,58,20.90
2021,06,30,08,59,20.80
2021,06,30,09,00,20.80
2021,06,30,09,01,20.90
2021,06,30,09,02,20.90
2021,06,30,09,03,20.90
2021,06,30,09,04,20.90
2021,06,30,09,05,20.90
2021,06,30,09,06,20.90
2021,06,30,09,07,20.90
2021,06,30,09,08,20.90
2021,06,30,09,09,20.90
2021,06,30,09,10,21.00
2021,06,30,09,11,21.00
2021,06,30,09,12,20.90
2021,06,30,09,13,20.90
2021,06,30,09,14,20.90
2021,06,30,09,15,20.90
2021,06,30,09,16,20.90
2021,06,30,09,17,20.90
2021,06,30,09,18,20.90
2021,06,30,09,19,21.00
2021,06,30,09,20,21.00
2021,06,30,09,21,21.10
2021,06,30,09,22,21.10
2021,06,30,09,23,21.20
2021,06,30,09,24,21.20
2021,06,30,09,25,21.30
2021,06,30,09,26,21.30
2021,06,30,09,27,21.30
2021,06,30,09,28,21.30
2021,06,30,09,29,21.30
2021,06,30,09,30,21.30
2021,06,30,09,31,21.30
2021,06,30,09,32,21.30
2021,06,30,09,33,21.30
2021,06,30,09,34,21.30
2021,06,30,09,35,21.30
2021,06,30,09,36,21.30
2021,06,30,09,37,21.30
2021,06,30,09,38,21.40
2021,06,30,09,39,21.40
2021,06,30,09,40,21.40
2021,06,30,09,41,21.40
2021,06,30,09,42,21.40
2021,06,30,09,43,21.50
2021,06,30,09,44,21.60
2021,06,30,09,45,21.60
2021,06,30,09,46,21.70
2021,06,30,09,47,21.70
2021,06,30,09,48,21.80
2021,06,30,09,49,21.80
2021,06,30,09,50,21.80
2021,06,30,09,51,21.80
2021,06,30,09,52,21.80
2021,06,30,09,53,21.80
2021,06,30,09,54,21.80
2021,06,30,09,55,21.70
2021,06,30,09,56,21.70
2021,06,30,09,57,21.60
2021,06,30,09,58,21.60
2021,06,30,09,59,21.70
2021,06,30,10,00,21.70
2021,06,30,10,01,21.70
2021,06,30,10,02,21.70
2021,06,30,10,03,21.80
2021,06,30,10,04,21.80
2021,06,30,10,05,21.80
2021,06,30,10,06,21.90
2021,06,30,10,07,21.90
2021,06,30,10,08,22.00
2021,06,30,10,09,22.00
2021,06,30,10,10,22.10
2021,06,30,10,11,22.10
2021,06,30,10,12,22.10
2021,06,30,10,13,22.10
2021,06,30,10,14,22.10
2021,06,30,10,15,22.10
2021,06,30,10,16,22.10
2021,06,30,10,17,22.00
2021,06,30,10,18,21.90
2021,06,30,10,19,21.90
2021,06,30,10,20,21.90
2021,06,30,10,21,21.80
2021,06,30,10,22,21.80
2021,06,30,10,23,21.80
2021,06,30,10,24,21.90
2021,06,30,10,25,22.00
2021,06,30,10,26,22.00
2021,06,30,10,27,22.10
2021,06,30,10,28,22.20
2021,06,30,10,29,22.20
2021,06,30,10,30,22.10
2021,06,30,10,31,22.00
2021,06,30,10,32,22.00
2021,06,30,10,33,21.90
2021,06,30,10,34,21.80
2021,06,30,10,35,21.70
2021,06,30,10,36,21.60
2021,06,30,10,37,21.60
2021,06,30,10,38,21.60
2021,06,30,10,39,21.40
2021,06,30,10,40,21.40
2021,06,30,10,41,21.40
2021,06,30,10,42,21.30
2021,06,30,10,43,21.30
2021,06,30,10,44,21.30
2021,06,30,10,45,21.30
2021,06,30,10,46,21.30
2021,06,30,10,47,21.30
2021,06,30,10,48,21.30
2021,06,30,10,49,21.30
2021,06,30,10,50,21.30
2021,06,30,10,51,21.30
2021,06,30,10,52,21.30
2021,06,30,10,53,21.30
2021,06,30,10,54,21.30
2021,06,30,10,55,21.40
2021,06,30,10,56,21.40
2021,06,30,10,57,21.40
2021,06,30,10,58,21.30
2021,06,30,10,59,21.30
2021,06,30,11,00,21.30
2021,06,30,11,01,21.40
2021,06,30,11,02,21.50
2021,06,30,11,03,21.60
2021,06,30,11,04,21.60
2021,06,30,11,05,21.60
2021,06,30,11,06,21.50
2021,06,30,11,07,21.40
2021,06,30,11,08,21.40
2021,06,30,11,09,21.30
2021,06,30,11,10,21.40
2021,06,30,11,11,21.40
2021,06,30,11,12,21.40
2021,06,30,11,13,21.40
2021,06,30,11,14,21.40
2021,06,30,11,15,21.40
2021,06,30,11,16,21.40
2021,06,30,11,17,21.40
2021,06,30,11,18,21.40
2021,06,30,11,19,21.50
2021,06,30,11,20,21.50
2021,06,30,11,21,21.60
2021,06,30,11,22,21.60
2021,06,30,11,23,21.50
2021,06,30,11,24,21.40
2021,06,30,11,25,21.50
2021,06,30,11,26,21.60
2021,06,30,11,27,21.60
2021,06,30,11,28,21.60
2021,06,30,11,29,21.60
2021,06,30,11,30,21.60
2021,06,30,11,31,21.60
2021,06,30,11,32,21.60
2021,06,30,11,33,21.60
2021,06,30,11,34,21.50
2021,06,30,11,35,21.30
2021,06,30,11,36,21.30
2021,06,30,11,37,21.20
2021,06,30,11,38,21.10
2021,06,30,11,39,21.10
2021,06,30,11,40,21.20
2021,06,30,11,41,21.20
2021,06,30,11,42,21.20
2021,06,30,11,43,21.30
2021,06,30,11,44,21.20
2021,06,30,11,45,21.10
2021,06,30,11,46,20.90
2021,06,30,11,47,20.50
2021,06,30,11,48,20.30
2021,06,30,11,49,20.20
2021,06,30,11,50,20.20
2021,06,30,11,51,20.00
2021,06,30,11,52,19.90
2021,06,30,11,53,19.80
2021,06,30,11,54,19.70
2021,06,30,11,55,19.60
2021,06,30,11,56,19.60
2021,06,30,11,57,19.60
2021,06,30,11,58,19.60
2021,06,30,11,59,19.60
2021,06,30,12,00,19.50
2021,06,30,12,01,19.40
2021,06,30,12,02,19.30
2021,06,30,12,03,19.20
2021,06,30,12,04,19.20
2021,06,30,12,05,19.30
2021,06,30,12,06,19.40
2021,06,30,12,07,19.50
2021,06,30,12,08,19.50
2021,06,30,12,09,19.50
2021,06,30,12,10,19.40
2021,06,30,12,11,19.40
2021,06,30,12,12,19.40
2021,06,30,12,13,19.40
2021,06,30,12,14,19.50
2021,06,30,12,15,19.50
2021,06,30,12,16,19.70
2021,06,30,12,17,19.80
2021,06,30,12,18,19.80
2021,06,30,12,19,19.90
2021,06,30,12,20,19.90
2021,06,30,12,21,19.90
2021,06,30,12,22,19.90
2021,06,30,12,23,19.90
2021,06,30,12,24,19.90
2021,06,30,12,25,20.00
2021,06,30,12,26,20.10
2021,06,30,12,27,20.00
2021,06,30,12,28,19.90
2021,06,30,12,29,20.10
2021,06,30,12,30,20.20
2021,06,30,12,31,20.30
2021,06,30,12,32,20.40
2021,06,30,12,33,20.40
2021,06,30,12,34,20.40
2021,06,30,12,35,20.40
2021,06,30,12,36,20.30
2021,06,30,12,37,20.20
2021,06,30,12,38,20.20
2021,06,30,12,39,20.30
2021,06,30,12,40,20.30
2021,06,30,12,41,20.30
2021,06,30,12,42,20.30
2021,06,30,12,43,20.30
2021,06,30,12,44,20.40
2021,06,30,12,45,20.50
2021,06,30,12,46,20.70
2021,06,30,12,47,20.80
2021,06,30,12,48,20.80
2021,06,30,12,49,20.90
2021,06,30,12,50,20.80
2021,06,30,12,51,20.80
2021,06,30,12,52,20.80
2021,06,30,12,53,20.80
2021,06,30,12,54,20.80
2021,06,30,12,55,20.90
2021,06,30,12,56,21.00
2021,06,30,12,57,21.00
2021,06,30,12,58,21.00
2021,06,30,12,59,21.00
2021,06,30,13,00,21.10
2021,06,30,13,01,21.20
2021,06,30,13,02,21.20
2021,06,30,13,03,21.30
2021,06,30,13,04,21.30
2021,06,30,13,05,21.40
2021,06,30,13,06,21.40
2021,06,30,13,07,21.40
2021,06,30,13,08,21.40
2021,06,30,13,09,21.30
2021,06,30,13,10,21.40
2021,06,30,13,11,21.50
2021,06,30,13,12,21.50
2021,06,30,13,13,21.40
2021,06,30,13,14,21.40
2021,06,30,13,15,21.40
2021,06,30,13,16,21.40
2021,06,30,13,17,21.40
2021,06,30,13,18,21.40
2021,06,30,13,19,21.40
2021,06,30,13,20,21.40
2021,06,30,13,21,21.50
2021,06,30,13,22,21.60
2021,06,30,13,23,21.60
2021,06,30,13,24,21.60
2021,06,30,13,25,21.60
2021,06,30,13,26,21.60
2021,06,30,13,27,21.60
2021,06,30,13,28,21.60
2021,06,30,13,29,21.60
2021,06,30,13,30,21.60
2021,06,30,13,31,21.60
2021,06,30,13,32,21.70
2021,06,30,13,33,21.70
2021,06,30,13,34,21.70
2021,06,30,13,35,21.70
2021,06,30,13,36,21.70
2021,06,30,13,37,21.70
2021,06,30,13,38,21.70
2021,06,30,13,39,21.70
2021,06,30,13,40,21.80
2021,06,30,13,41,21.80
2021,06,30,13,42,21.80
2021,06,30,13,43,21.80
2021,06,30,13,44,21.80
2021,06,30,13,45,21.80
2021,06,30,13,46,21.70
2021,06,30,13,47,21.70
2021,06,30,13,48,21.60
2021,06,30,13,49,21.60
2021,06,30,13,50,21.60
2021,06,30,13,51,21.60
2021,06,30,13,52,21.60
2021,06,30,13,53,21.60
2021,06,30,13,54,21.60
2021,06,30,13,55,21.60
2021,06,30,13,56,21.60
2021,06,30,13,57,21.70
2021,06,30,13,58,21.70
2021,06,30,13,59,21.60
2021,06,30,14,00,21.60
2021,06,30,14,01,21.60
2021,06,30,14,02,21.70
2021,06,30,14,03,21.80
2021,06,30,14,04,21.80
2021,06,30,14,05,21.90
2021,06,30,14,06,21.90
2021,06,30,14,07,21.90
2021,06,30,14,08,22.00
2021,06,30,14,09,22.00
2021,06,30,14,10,22.00
2021,06,30,14,11,22.10
2021,06,30,14,12,22.10
2021,06,30,14,13,22.20
2021,06,30,14,14,22.20
2021,06,30,14,15,22.20
2021,06,30,14,16,22.30
2021,06,30,14,17,22.30
2021,06,30,14,18,22.30
2021,06,30,14,19,22.40
2021,06,30,14,20,22.50
2021,06,30,14,21,22.50
2021,06,30,14,22,22.50
2021,06,30,14,23,22.50
2021,06,30,14,24,22.50
2021,06,30,14,25,22.50
2021,06,30,14,26,22.50
2021,06,30,14,27,22.50
2021,06,30,14,28,22.60
2021,06,30,14,29,22.60
2021,06,30,14,30,22.70
2021,06,30,14,31,22.70
2021,06,30,14,32,22.80
2021,06,30,14,33,22.90
2021,06,30,14,34,22.90
2021,06,30,14,35,22.90
2021,06,30,14,36,23.00
2021,06,30,14,37,23.10
2021,06,30,14,38,23.10
2021,06,30,14,39,23.10
2021,06,30,14,40,23.10
2021,06,30,14,41,23.10
2021,06,30,14,42,23.10
2021,06,30,14,43,23.10
2021,06,30,14,44,23.20
2021,06,30,14,45,23.20
2021,06,30,14,46,23.20
2021,06,30,14,47,23.20
2021,06,30,14,48,23.20
2021,06,30,14,49,23.20
2021,06,30,14,50,23.20
2021,06,30,14,51,23.20
2021,06,30,14,52,23.30
2021,06,30,14,53,23.30
2021,06,30,14,54,23.30
2021,06,30,14,55,23.40
2021,06,30,14,56,23.60
2021,06,30,14,57,23.70
2021,06,30,14,58,23.70
2021,06,30,14,59,23.60
2021,06,30,15,00,23.60
2021,06,30,15,01,23.60
2021,06,30,15,02,23.60
2021,06,30,15,03,23.60
2021,06,30,15,04,23.60
2021,06,30,15,05,23.70
2021,06,30,15,06,23.70
2021,06,30,15,07,23.70
2021,06,30,15,08,23.70
2021,06,30,15,09,23.70
2021,06,30,15,10,23.70
2021,06,30,15,11,23.70
2021,06,30,15,12,23.70
2021,06,30,15,13,23.80
2021,06,30,15,14,23.90
2021,06,30,15,15,23.90
2021,06,30,15,16,23.90
2021,06,30,15,17,23.90
2021,06,30,15,18,23.80
2021,06,30,15,19,23.80
2021,06,30,15,20,23.70
2021,06,30,15,21,23.70
2021,06,30,15,22,23.70
2021,06,30,15,23,23.70
2021,06,30,15,24,23.70
2021,06,30,15,25,23.70
2021,06,30,15,26,23.80
2021,06,30,15,27,23.80
2021,06,30,15,28,23.80
2021,06,30,15,29,23.70
2021,06,30,15,30,23.70
2021,06,30,15,31,23.70
2021,06,30,15,32,23.80
2021,06,30,15,33,23.90
2021,06,30,15,34,24.00
2021,06,30,15,35,24.10
2021,06,30,15,36,24.10
2021,06,30,15,37,24.10
2021,06,30,15,38,24.10
2021,06,30,15,39,24.10
2021,06,30,15,40,24.00
2021,06,30,15,41,23.90
2021,06,30,15,42,23.90
2021,06,30,15,43,23.90
2021,06,30,15,44,24.00
2021,06,30,15,45,24.10
2021,06,30,15,46,24.10
2021,06,30,15,47,24.10
2021,06,30,15,48,24.10
2021,06,30,15,49,24.10
2021,06,30,15,50,24.10
2021,06,30,15,51,24.00
2021,06,30,15,52,23.90
2021,06,30,15,53,23.90
2021,06,30,15,54,23.90
2021,06,30,15,55,23.90
2021,06,30,15,56,23.90
2021,06,30,15,57,23.90
2021,06,30,15,58,23.90
2021,06,30,15,59,23.80
2021,06,30,16,00,23.80
2021,06,30,16,01,23.70
2021,06,30,16,02,23.70
2021,06,30,16,03,23.70
2021,06,30,16,04,23.70
2021,06,30,16,05,23.70
2021,06,30,16,06,23.70
2021,06,30,16,07,23.70
2021,06,30,16,08,23.70
2021,06,30,16,09,23.70
2021,06,30,16,10,23.80
2021,06,30,16,11,23.80
2021,06,30,16,12,24.00
2021,06,30,16,13,24.10
2021,06,30,16,14,24.10
2021,06,30,16,15,24.10
2021,06,30,16,16,24.10
2021,06,30,16,17,24.10
2021,06,30,16,18,24.10
2021,06,30,16,19,24.10
2021,06,30,16,20,24.10
2021,06,30,16,21,24.10
2021,06,30,16,22,24.10
2021,06,30,16,23,24.10
2021,06,30,16,24,24.10
2021,06,30,16,25,24.10
2021,06,30,16,26,24.20
2021,06,30,16,27,24.20
2021,06,30,16,28,24.20
2021,06,30,16,29,24.20
2021,06,30,16,30,24.20
2021,06,30,16,31,24.10
2021,06,30,16,32,24.10
2021,06,30,16,33,24.10
2021,06,30,16,34,24.10
2021,06,30,16,35,24.10
2021,06,30,16,36,24.10
2021,06,30,16,37,24.10
2021,06,30,16,38,24.20
2021,06,30,16,39,24.20
2021,06,30,16,40,24.10
2021,06,30,16,41,24.10
2021,06,30,16,42,24.10
2021,06,30,16,43,24.10
2021,06,30,16,44,24.10
2021,06,30,16,45,24.00
2021,06,30,16,46,23.90
2021,06,30,16,47,23.80
2021,06,30,16,48,23.70
2021,06,30,16,49,23.70
2021,06,30,16,50,23.70
2021,06,30,16,51,23.70
2021,06,30,16,52,23.70
2021,06,30,16,53,23.60
2021,06,30,16,54,23.60
2021,06,30,16,55,23.60
2021,06,30,16,56,23.60
2021,06,30,16,57,23.70
2021,06,30,16,58,23.70
2021,06,30,16,59,23.70
2021,06,30,17,00,23.70
2021,06,30,17,01,23.80
2021,06,30,17,02,23.80
2021,06,30,17,03,23.80
2021,06,30,17,04,23.80
2021,06,30,17,05,23.80
2021,06,30,17,06,23.80
2021,06,30,17,07,23.80
2021,06,30,17,08,23.80
2021,06,30,17,09,23.90
2021,06,30,17,10,23.90
2021,06,30,17,11,23.90
2021,06,30,17,12,23.90
2021,06,30,17,13,23.90
2021,06,30,17,14,23.90
2021,06,30,17,15,23.90
2021,06,30,17,16,23.90
2021,06,30,17,17,23.80
2021,06,30,17,18,23.80
2021,06,30,17,19,23.90
2021,06,30,17,20,23.90
2021,06,30,17,21,23.90
2021,06,30,17,22,23.90
2021,06,30,17,23,23.80
2021,06,30,17,24,23.70
2021,06,30,17,25,23.70
2021,06,30,17,26,23.60
2021,06,30,17,27,23.60
2021,06,30,17,28,23.60
2021,06,30,17,29,23.60
2021,06,30,17,30,23.60
2021,06,30,17,31,23.60
2021,06,30,17,32,23.70
2021,06,30,17,33,23.70
2021,06,30,17,34,23.70
2021,06,30,17,35,23.70
2021,06,30,17,36,23.70
2021,06,30,17,37,23.80
2021,06,30,17,38,23.90
2021,06,30,17,39,23.90
2021,06,30,17,40,24.00
2021,06,30,17,41,24.10
2021,06,30,17,42,24.10
2021,06,30,17,43,24.00
2021,06,30,17,44,23.90
2021,06,30,17,45,23.90
2021,06,30,17,46,23.80
2021,06,30,17,47,23.80
2021,06,30,17,48,23.70
2021,06,30,17,49,23.80
2021,06,30,17,50,23.80
2021,06,30,17,51,23.80
2021,06,30,17,52,23.80
2021,06,30,17,53,23.80
2021,06,30,17,54,23.90
2021,06,30,17,55,23.90
2021,06,30,17,56,23.90
2021,06,30,17,57,23.80
2021,06,30,17,58,23.80
2021,06,30,17,59,23.80
2021,06,30,18,00,23.80
2021,06,30,18,01,23.70
2021,06,30,18,02,23.70
2021,06,30,18,03,23.70
2021,06,30,18,04,23.70
2021,06,30,18,05,23.70
2021,06,30,18,06,23.70
2021,06,30,18,07,23.70
2021,06,30,18,08,23.70
2021,06,30,18,09,23.70
2021,06,30,18,10,23.70
2021,06,30,18,11,23.70
2021,06,30,18,12,23.70
2021,06,30,18,13,23.70
2021,06,30,18,14,23.70
2021,06,30,18,15,23.70
2021,06,30,18,16,23.70
2021,06,30,18,17,23.60
2021,06,30,18,18,23.60
2021,06,30,18,19,23.60
2021,06,30,18,20,23.60
2021,06,30,18,21,23.60
2021,06,30,18,22,23.70
2021,06,30,18,23,23.70
2021,06,30,18,24,23.70
2021,06,30,18,25,23.70
2021,06,30,18,26,23.80
2021,06,30,18,27,23.80
2021,06,30,18,28,23.70
2021,06,30,18,29,23.70
2021,06,30,18,30,23.70
2021,06,30,18,31,23.70
2021,06,30,18,32,23.70
2021,06,30,18,33,23.80
2021,06,30,18,34,23.80
2021,06,30,18,35,23.80
2021,06,30,18,36,23.80
2021,06,30,18,37,23.80
2021,06,30,18,38,23.80
2021,06,30,18,39,23.80
2021,06,30,18,40,23.80
2021,06,30,18,41,23.70
2021,06,30,18,42,23.70
2021,06,30,18,43,23.60
2021,06,30,18,44,23.60
2021,06,30,18,45,23.60
2021,06,30,18,46,23.60
2021,06,30,18,47,23.60
2021,06,30,18,48,23.60
2021,06,30,18,49,23.50
2021,06,30,18,50,23.40
2021,06,30,18,51,23.40
2021,06,30,18,52,23.40
2021,06,30,18,53,23.40
2021,06,30,18,54,23.30
2021,06,30,18,55,23.30
2021,06,30,18,56,23.30
2021,06,30,18,57,23.30
2021,06,30,18,58,23.30
2021,06,30,18,59,23.30
2021,06,30,19,00,23.30
2021,06,30,19,01,23.30
2021,06,30,19,02,23.20
2021,06,30,19,03,23.20
2021,06,30,19,04,23.20
2021,06,30,19,05,23.20
2021,06,30,19,06,23.30
2021,06,30,19,07,23.30
2021,06,30,19,08,23.30
2021,06,30,19,09,23.30
2021,06,30,19,10,23.30
2021,06,30,19,11,23.30
2021,06,30,19,12,23.30
2021,06,30,19,13,23.30
2021,06,30,19,14,23.30
2021,06,30,19,15,23.30
2021,06,30,19,16,23.30
2021,06,30,19,17,23.30
2021,06,30,19,18,23.20
2021,06,30,19,19,23.20
2021,06,30,19,20,23.20
2021,06,30,19,21,23.20
2021,06,30,19,22,23.20
2021,06,30,19,23,23.20
2021,06,30,19,24,23.20
2021,06,30,19,25,23.10
2021,06,30,19,26,23.00
2021,06,30,19,27,22.90
2021,06,30,19,28,22.90
2021,06,30,19,29,22.90
2021,06,30,19,30,22.90
2021,06,30,19,31,22.90
2021,06,30,19,32,22.90
2021,06,30,19,33,22.90
2021,06,30,19,34,22.90
2021,06,30,19,35,22.90
2021,06,30,19,36,22.90
2021,06,30,19,37,22.90
2021,06,30,19,38,22.90
2021,06,30,19,39,22.90
2021,06,30,19,40,22.90
2021,06,30,19,41,22.90
2021,06,30,19,42,22.90
2021,06,30,19,43,22.90
